| time (UTC) | temp F | wind direction | speed knots | gust knots | rain 1hr in | rain 24hr in | rain mn in | humidity % | barometer mb |
| 20260507235049 | 58 | 202 | 0.0 | 0.9 | 0.00 | 0.00 | 0.00 | 65 | 1006.4 |
| 20260507234550 | 58 | 219 | 0.0 | 0.0 | 0.00 | 0.00 | 0.00 | 65 | 1006.4 |
| 20260507234052 | 59 | 208 | 0.0 | 0.0 | 0.00 | 0.00 | 0.00 | 64 | 1006.3 |
| 20260507233549 | 59 | 213 | 0.0 | 0.9 | 0.00 | 0.00 | 0.00 | 64 | 1006.3 |
| 20260507233048 | 59 | 230 | 0.0 | 0.9 | 0.00 | 0.00 | 0.00 | 64 | 1006.3 |
| 20260507232549 | 59 | 223 | 0.0 | 0.0 | 0.00 | 0.00 | 0.00 | 64 | 1006.1 |
| 20260507232048 | 59 | 202 | 0.0 | 0.0 | 0.00 | 0.00 | 0.00 | 63 | 1006.1 |
| 20260507231555 | 60 | 208 | 0.0 | 0.9 | 0.00 | 0.00 | 0.00 | 62 | 1006.0 |
| 20260507231049 | 60 | 215 | 0.0 | 0.9 | 0.00 | 0.00 | 0.00 | 61 | 1006.0 |
| 20260507230551 | 61 | 189 | 0.0 | 0.9 | 0.00 | 0.00 | 0.00 | 60 | 1005.9 |
| 20260507230047 | 61 | 215 | 0.0 | 0.0 | 0.00 | 0.00 | 0.00 | 61 | 1005.9 |
| 20260507225547 | 61 | 216 | 0.0 | 0.0 | 0.00 | 0.00 | 0.00 | 59 | 1005.8 |
| 20260507225048 | 62 | 202 | 0.0 | 0.9 | 0.00 | 0.00 | 0.00 | 60 | 1005.7 |
| 20260507224550 | 62 | 202 | 0.0 | 0.9 | 0.00 | 0.00 | 0.00 | 57 | 1005.6 |
| 20260507224047 | 62 | 196 | 0.0 | 0.9 | 0.00 | 0.00 | 0.00 | 56 | 1005.5 |
| 20260507223549 | 62 | 183 | 0.0 | 1.7 | 0.00 | 0.00 | 0.00 | 56 | 1005.6 |
| 20260507223047 | 62 | 161 | 0.0 | 1.7 | 0.00 | 0.00 | 0.00 | 55 | 1005.5 |
| 20260507222547 | 62 | 147 | 0.0 | 0.0 | 0.00 | 0.00 | 0.00 | 54 | 1005.5 |
| 20260507222046 | 63 | 165 | 0.0 | 1.7 | 0.00 | 0.00 | 0.00 | 54 | 1005.5 |
| 20260507221547 | 63 | 159 | 0.0 | 1.7 | 0.00 | 0.00 | 0.00 | 55 | 1005.4 |
| 20260507221046 | 63 | 200 | 0.0 | 0.9 | 0.00 | 0.00 | 0.00 | 56 | 1005.4 |
| 20260507220546 | 62 | 164 | 0.0 | 1.7 | 0.00 | 0.00 | 0.00 | 54 | 1005.4 |
| 20260507220045 | 63 | 205 | 0.0 | 1.7 | 0.00 | 0.00 | 0.00 | 54 | 1005.3 |
| 20260507215546 | 63 | 161 | 0.0 | 0.0 | 0.00 | 0.00 | 0.00 | 56 | 1005.4 |
| 20260507215044 | 63 | 163 | 0.0 | 0.0 | 0.00 | 0.00 | 0.00 | 55 | 1005.3 |
| 20260507214548 | 63 | 156 | 0.0 | 3.5 | 0.00 | 0.00 | 0.00 | 56 | 1005.2 |
| 20260507214044 | 63 | 174 | 0.0 | 3.5 | 0.00 | 0.00 | 0.00 | 54 | 1005.2 |
| 20260507213544 | 64 | 150 | 0.0 | 1.7 | 0.00 | 0.00 | 0.00 | 55 | 1005.2 |
| 20260507213045 | 64 | 154 | 0.0 | 0.9 | 0.00 | 0.00 | 0.00 | 48 | 1005.2 |
| 20260507212544 | 63 | 134 | 0.0 | 0.9 | 0.00 | 0.00 | 0.00 | 49 | 1005.2 |
| 20260507212044 | 63 | 134 | 0.0 | 0.9 | 0.00 | 0.00 | 0.00 | 46 | 1005.3 |
| 20260507211554 | 65 | 105 | 0.0 | 1.7 | 0.00 | 0.00 | 0.00 | 45 | 1005.2 |
| 20260507211046 | 65 | 144 | 0.0 | 3.5 | 0.00 | 0.00 | 0.00 | 43 | 1005.2 |
| 20260507210542 | 65 | 94 | 0.0 | 3.5 | 0.00 | 0.00 | 0.00 | 46 | 1005.2 |
| 20260507210047 | 65 | 146 | 0.0 | 0.0 | 0.00 | 0.00 | 0.00 | 51 | 1005.3 |
| 20260507205542 | 65 | 104 | 0.0 | 0.0 | 0.00 | 0.00 | 0.00 | 45 | 1005.3 |
| 20260507205042 | 65 | 105 | 0.0 | 0.9 | 0.00 | 0.00 | 0.00 | 43 | 1005.3 |
| 20260507204542 | 65 | 294 | 0.0 | 2.6 | 0.00 | 0.00 | 0.00 | 43 | 1005.4 |
| 20260507204041 | 66 | 24 | 0.9 | 2.6 | 0.00 | 0.00 | 0.00 | 47 | 1005.4 |
| 20260507203541 | 66 | 30 | 0.0 | 2.6 | 0.00 | 0.00 | 0.00 | 44 | 1005.4 |
| 20260507203041 | 65 | 42 | 0.0 | 0.9 | 0.00 | 0.00 | 0.00 | 49 | 1005.4 |
| 20260507202543 | 65 | 92 | 0.0 | 0.0 | 0.00 | 0.00 | 0.00 | 48 | 1005.4 |
| 20260507202040 | 65 | 360 | 0.0 | 0.9 | 0.00 | 0.00 | 0.00 | 48 | 1005.4 |
| 20260507201540 | 65 | 225 | 0.0 | 2.6 | 0.00 | 0.00 | 0.00 | 46 | 1005.5 |
| 20260507201039 | 65 | 15 | 0.0 | 0.9 | 0.00 | 0.00 | 0.00 | 48 | 1005.4 |
| 20260507200539 | 65 | 71 | 0.0 | 0.0 | 0.00 | 0.00 | 0.00 | 48 | 1005.5 |
| 20260507200041 | 65 | 96 | 0.0 | 0.0 | 0.00 | 0.00 | 0.00 | 46 | 1005.5 |
| 20260507195537 | 64 | 340 | 0.0 | 0.0 | 0.00 | 0.00 | 0.00 | 47 | 1005.5 |
| 20260507195036 | 64 | 273 | 0.0 | 0.0 | 0.00 | 0.00 | 0.00 | 44 | 1005.6 |
| 20260507194538 | 64 | 319 | 0.0 | 0.0 | 0.00 | 0.00 | 0.00 | 49 | 1005.7 |
| 20260507194035 | 63 | 59 | 0.0 | 0.0 | 0.00 | 0.00 | 0.00 | 50 | 1005.8 |
| 20260507193535 | 65 | 92 | 0.0 | 0.9 | 0.00 | 0.00 | 0.00 | 46 | 1005.8 |
| 20260507193034 | 65 | 53 | 0.0 | 0.9 | 0.00 | 0.00 | 0.00 | 48 | 1005.9 |
| 20260507192534 | 65 | 31 | 0.0 | 0.9 | 0.00 | 0.00 | 0.00 | 47 | 1005.9 |
| 20260507192034 | 64 | 93 | 0.0 | 1.7 | 0.00 | 0.00 | 0.00 | 44 | 1006.0 |
| 20260507191532 | 65 | 17 | 0.0 | 3.5 | 0.00 | 0.00 | 0.00 | 47 | 1006.1 |
| 20260507191034 | 64 | 57 | 0.0 | 3.5 | 0.00 | 0.00 | 0.00 | 49 | 1006.3 |
| 20260507190530 | 64 | 41 | 0.0 | 0.0 | 0.00 | 0.00 | 0.00 | 45 | 1006.3 |
| 20260507190036 | 65 | 67 | 0.0 | 0.9 | 0.00 | 0.00 | 0.00 | 46 | 1006.4 |
| 20260507185529 | 65 | 36 | 0.0 | 1.7 | 0.00 | 0.00 | 0.00 | 48 | 1006.4 |
| 20260507185028 | 64 | 284 | 0.0 | 0.9 | 0.00 | 0.00 | 0.00 | 47 | 1006.4 |
| 20260507184528 | 64 | 290 | 0.0 | 0.0 | 0.00 | 0.00 | 0.00 | 49 | 1006.4 |
| 20260507184032 | 64 | 244 | 0.0 | 0.9 | 0.00 | 0.00 | 0.00 | 52 | 1006.5 |
| 20260507183530 | 63 | 56 | 0.0 | 0.9 | 0.00 | 0.00 | 0.00 | 46 | 1006.6 |
| 20260507183026 | 63 | 284 | 0.0 | 0.9 | 0.00 | 0.00 | 0.00 | 49 | 1006.6 |
| 20260507182526 | 64 | 12 | 0.0 | 0.9 | 0.00 | 0.00 | 0.00 | 49 | 1006.6 |
| 20260507182026 | 62 | 43 | 0.0 | 0.0 | 0.00 | 0.00 | 0.00 | 47 | 1006.6 |
| 20260507181525 | 63 | 338 | 0.0 | 0.9 | 0.00 | 0.00 | 0.00 | 45 | 1006.8 |
| 20260507181024 | 64 | 290 | 0.0 | 0.9 | 0.00 | 0.00 | 0.00 | 47 | 1006.8 |
| 20260507180522 | 63 | 26 | 0.0 | 0.9 | 0.00 | 0.00 | 0.00 | 48 | 1006.9 |
| 20260507180021 | 63 | 5 | 0.0 | 0.9 | 0.00 | 0.00 | 0.00 | 49 | 1006.9 |
| 20260507175522 | 62 | 11 | 0.0 | 2.6 | 0.00 | 0.00 | 0.00 | 51 | 1006.9 |
| 20260507175018 | 62 | 20 | 0.0 | 2.6 | 0.00 | 0.00 | 0.00 | 51 | 1007.1 |
| 20260507174538 | 62 | 26 | 0.0 | 1.7 | 0.00 | 0.00 | 0.00 | 52 | 1007.2 |
| 20260507174018 | 61 | 230 | 0.0 | 0.9 | 0.00 | 0.00 | 0.00 | 51 | 1007.4 |
| 20260507173518 | 61 | 28 | 0.0 | 0.9 | 0.00 | 0.00 | 0.00 | 52 | 1007.5 |
| 20260507173021 | 60 | 313 | 0.0 | 0.9 | 0.00 | 0.00 | 0.00 | 48 | 1007.6 |
| 20260507172515 | 60 | 20 | 0.0 | 0.9 | 0.00 | 0.00 | 0.00 | 51 | 1007.6 |
| 20260507172019 | 60 | 286 | 0.0 | 0.9 | 0.00 | 0.00 | 0.00 | 52 | 1007.5 |
| 20260507171518 | 60 | 292 | 0.0 | 0.0 | 0.00 | 0.00 | 0.00 | 52 | 1007.6 |
| 20260507171013 | 60 | 287 | 0.0 | 3.5 | 0.00 | 0.00 | 0.00 | 48 | 1007.8 |
| 20260507170515 | 60 | 34 | 0.0 | 3.5 | 0.00 | 0.00 | 0.00 | 49 | 1007.9 |
| 20260507170012 | 60 | 29 | 0.0 | 1.7 | 0.00 | 0.00 | 0.00 | 54 | 1007.9 |
| 20260507165518 | 59 | 56 | 0.0 | 0.0 | 0.00 | 0.00 | 0.00 | 55 | 1007.9 |
| 20260507165012 | 59 | 225 | 0.0 | 0.9 | 0.00 | 0.00 | 0.00 | 49 | 1008.0 |
| 20260507164511 | 60 | 269 | 0.0 | 0.9 | 0.00 | 0.00 | 0.00 | 55 | 1008.1 |
| 20260507164011 | 59 | 327 | 0.0 | 1.7 | 0.00 | 0.00 | 0.00 | 51 | 1008.1 |
| 20260507163511 | 59 | 333 | 0.0 | 1.7 | 0.00 | 0.00 | 0.00 | 56 | 1008.3 |
| 20260507163009 | 59 | 288 | 0.0 | 0.9 | 0.00 | 0.00 | 0.00 | 55 | 1008.3 |
| 20260507162511 | 59 | 308 | 0.0 | 2.6 | 0.00 | 0.00 | 0.00 | 53 | 1008.4 |
| 20260507162009 | 58 | 271 | 0.0 | 2.6 | 0.00 | 0.00 | 0.00 | 55 | 1008.5 |
| 20260507161509 | 58 | 257 | 0.0 | 0.9 | 0.00 | 0.00 | 0.00 | 53 | 1008.4 |
| 20260507161013 | 59 | 323 | 0.0 | 1.7 | 0.00 | 0.00 | 0.00 | 53 | 1008.5 |
| 20260507160508 | 59 | 19 | 0.0 | 1.7 | 0.00 | 0.00 | 0.00 | 56 | 1008.6 |
| 20260507160011 | 59 | 304 | 0.0 | 1.7 | 0.00 | 0.00 | 0.00 | 51 | 1008.6 |
| 20260507155606 | 59 | 335 | 0.0 | 1.7 | 0.00 | 0.00 | 0.00 | 57 | 1008.7 |
| 20260507155005 | 58 | 18 | 0.0 | 6.1 | 0.00 | 0.00 | 0.00 | 55 | 1008.7 |
| 20260507154508 | 58 | 331 | 0.0 | 8.7 | 0.00 | 0.00 | 0.00 | 55 | 1008.7 |
| 20260507154007 | 58 | 332 | 0.0 | 8.7 | 0.00 | 0.00 | 0.00 | 54 | 1008.8 |
| 20260507153505 | 58 | 52 | 0.0 | 4.3 | 0.00 | 0.00 | 0.00 | 52 | 1009.0 |
| 20260507153004 | 58 | 360 | 0.0 | 0.0 | 0.00 | 0.00 | 0.00 | 59 | 1008.9 |
| 20260507152504 | 57 | 304 | 0.0 | 0.0 | 0.00 | 0.00 | 0.00 | 60 | 1009.1 |
| 20260507152004 | 57 | 259 | 0.0 | 5.2 | 0.00 | 0.00 | 0.00 | 59 | 1009.1 |
| 20260507151507 | 57 | 295 | 0.0 | 5.2 | 0.00 | 0.00 | 0.00 | 56 | 1009.1 |
| 20260507151003 | 57 | 287 | 0.0 | 0.9 | 0.00 | 0.00 | 0.00 | 53 | 1009.1 |
| 20260507150503 | 58 | 340 | 0.0 | 7.8 | 0.00 | 0.00 | 0.00 | 57 | 1009.2 |
| 20260507150003 | 58 | 11 | 0.9 | 7.8 | 0.00 | 0.00 | 0.00 | 55 | 1009.4 |
| 20260507145502 | 58 | 5 | 0.0 | 4.3 | 0.00 | 0.02 | 0.00 | 56 | 1009.4 |
| 20260507145004 | 58 | 56 | 0.0 | 4.3 | 0.00 | 0.02 | 0.00 | 57 | 1009.5 |
| 20260507144601 | 57 | 39 | 0.0 | 1.7 | 0.00 | 0.02 | 0.00 | 58 | 1009.6 |
| 20260507144101 | 55 | 39 | 0.0 | 0.0 | 0.00 | 0.02 | 0.00 | 62 | 1009.7 |
| 20260507143600 | 54 | 360 | 0.0 | 0.0 | 0.00 | 0.02 | 0.00 | 61 | 1009.6 |
| 20260507143119 | 54 | 336 | 0.0 | 0.0 | 0.00 | 0.02 | 0.00 | 60 | 1009.6 |
| 20260507142601 | 54 | 47 | 0.0 | 0.0 | 0.00 | 0.02 | 0.00 | 59 | 1009.8 |
| 20260507142502 | 54 | 54 | 0.0 | 0.0 | 0.00 | 0.02 | 0.00 | 59 | 1009.8 |
| 20260507142101 | 54 | 351 | 0.0 | 0.0 | 0.00 | 0.02 | 0.00 | 63 | 1009.7 |
| 20260507141630 | 54 | 11 | 0.0 | 0.0 | 0.00 | 0.02 | 0.00 | 63 | 1009.9 |
| 20260507141100 | 53 | 340 | 0.0 | 0.0 | 0.00 | 0.02 | 0.00 | 61 | 1009.8 |
| 20260507140559 | 53 | 342 | 0.0 | 0.0 | 0.00 | 0.02 | 0.00 | 60 | 1010.0 |
| 20260507140113 | 53 | 9 | 0.0 | 0.0 | 0.00 | 0.02 | 0.00 | 60 | 1010.2 |
| 20260507135559 | 53 | 340 | 0.0 | 0.0 | 0.00 | 0.07 | 0.00 | 59 | 1010.3 |
| 20260507135058 | 53 | 340 | 0.0 | 0.0 | 0.00 | 0.07 | 0.00 | 60 | 1010.3 |
| 20260507134607 | 53 | 313 | 0.0 | 0.0 | 0.00 | 0.07 | 0.00 | 62 | 1010.3 |
| 20260507134057 | 52 | 274 | 0.0 | 1.7 | 0.00 | 0.07 | 0.00 | 63 | 1010.3 |
| 20260507133557 | 52 | 277 | 0.0 | 1.7 | 0.00 | 0.07 | 0.00 | 63 | 1010.3 |
| 20260507133104 | 52 | 327 | 0.0 | 2.6 | 0.00 | 0.07 | 0.00 | 61 | 1010.1 |
| 20260507132556 | 52 | 338 | 0.0 | 0.9 | 0.00 | 0.07 | 0.00 | 61 | 1010.1 |
| 20260507132058 | 52 | 294 | 0.0 | 0.0 | 0.00 | 0.07 | 0.00 | 63 | 1010.2 |
| 20260507131619 | 52 | 310 | 0.0 | 1.7 | 0.00 | 0.07 | 0.00 | 63 | 1010.2 |
| 20260507131056 | 52 | 315 | 0.0 | 1.7 | 0.00 | 0.07 | 0.00 | 63 | 1010.2 |
| 20260507130555 | 52 | 296 | 0.0 | 0.0 | 0.00 | 0.07 | 0.00 | 63 | 1010.3 |
| 20260507130105 | 52 | 355 | 0.0 | 0.0 | 0.00 | 0.07 | 0.00 | 63 | 1010.4 |
| 20260507125555 | 52 | 300 | 0.0 | 0.0 | 0.00 | 0.12 | 0.00 | 63 | 1010.3 |
| 20260507125055 | 52 | 276 | 0.0 | 2.6 | 0.00 | 0.12 | 0.00 | 62 | 1010.2 |
| 20260507124602 | 52 | 331 | 0.0 | 2.6 | 0.00 | 0.12 | 0.00 | 62 | 1010.4 |
| 20260507124057 | 52 | 296 | 0.0 | 0.0 | 0.00 | 0.12 | 0.00 | 63 | 1010.3 |
| 20260507123554 | 52 | 331 | 0.0 | 0.0 | 0.00 | 0.12 | 0.00 | 64 | 1010.2 |
| 20260507123101 | 52 | 281 | 0.0 | 0.9 | 0.00 | 0.12 | 0.00 | 62 | 1010.2 |
| 20260507122553 | 52 | 306 | 0.0 | 0.9 | 0.00 | 0.12 | 0.00 | 63 | 1010.1 |
| 20260507122057 | 52 | 296 | 0.0 | 0.0 | 0.00 | 0.12 | 0.00 | 63 | 1010.1 |
| 20260507121557 | 52 | 360 | 0.0 | 0.9 | 0.00 | 0.12 | 0.00 | 64 | 1010.1 |
| 20260507121053 | 52 | 338 | 0.0 | 0.9 | 0.00 | 0.12 | 0.00 | 64 | 1010.1 |
| 20260507120552 | 52 | 344 | 0.0 | 0.0 | 0.00 | 0.12 | 0.00 | 64 | 1010.2 |
| 20260507120051 | 52 | 360 | 0.0 | 0.0 | 0.00 | 0.12 | 0.00 | 63 | 1010.2 |
| 20260507115550 | 52 | 355 | 0.0 | 0.0 | 0.00 | 0.15 | 0.00 | 63 | 1010.1 |
| 20260507115049 | 52 | 360 | 0.0 | 0.0 | 0.00 | 0.15 | 0.00 | 64 | 1010.0 |
| 20260507114548 | 52 | 342 | 0.0 | 0.0 | 0.00 | 0.15 | 0.00 | 63 | 1009.9 |
| 20260507114052 | 52 | 63 | 0.0 | 0.9 | 0.00 | 0.15 | 0.00 | 63 | 1009.9 |
| 20260507113547 | 52 | 347 | 0.0 | 0.0 | 0.00 | 0.15 | 0.00 | 63 | 1009.8 |
| 20260507113107 | 51 | 13 | 0.0 | 0.0 | 0.00 | 0.15 | 0.00 | 63 | 1009.7 |
| 20260507112548 | 51 | 30 | 0.0 | 0.0 | 0.00 | 0.15 | 0.00 | 64 | 1009.7 |
| 20260507112050 | 51 | 5 | 0.0 | 0.0 | 0.00 | 0.15 | 0.00 | 64 | 1009.7 |
| 20260507111546 | 52 | 34 | 0.0 | 0.0 | 0.00 | 0.15 | 0.00 | 65 | 1009.8 |
| 20260507111047 | 52 | 55 | 0.0 | 0.0 | 0.00 | 0.15 | 0.00 | 65 | 1009.8 |
| 20260507110545 | 52 | 5 | 0.0 | 0.0 | 0.00 | 0.15 | 0.00 | 64 | 1009.7 |
| 20260507110045 | 52 | 9 | 0.0 | 0.0 | 0.00 | 0.15 | 0.00 | 63 | 1009.7 |
| 20260507105544 | 52 | 332 | 0.0 | 0.0 | 0.00 | 0.15 | 0.00 | 63 | 1009.7 |
| 20260507105043 | 52 | 339 | 0.0 | 0.0 | 0.00 | 0.15 | 0.00 | 64 | 1009.6 |
| 20260507104554 | 52 | 318 | 0.0 | 0.0 | 0.00 | 0.15 | 0.00 | 64 | 1009.6 |
| 20260507104042 | 52 | 300 | 0.0 | 1.7 | 0.00 | 0.15 | 0.00 | 64 | 1009.5 |
| 20260507103542 | 52 | 343 | 0.0 | 1.7 | 0.00 | 0.15 | 0.00 | 65 | 1009.4 |
| 20260507103040 | 52 | 279 | 0.0 | 4.3 | 0.00 | 0.15 | 0.00 | 66 | 1009.3 |
| 20260507102539 | 52 | 328 | 0.0 | 4.3 | 0.00 | 0.15 | 0.00 | 67 | 1009.2 |
| 20260507102039 | 52 | 355 | 0.0 | 2.6 | 0.00 | 0.15 | 0.00 | 69 | 1009.1 |
| 20260507101538 | 52 | 5 | 0.0 | 0.0 | 0.00 | 0.15 | 0.00 | 70 | 1009.1 |
| 20260507101037 | 52 | 355 | 0.0 | 0.0 | 0.00 | 0.15 | 0.00 | 71 | 1009.1 |
| 20260507100536 | 52 | 28 | 0.0 | 0.0 | 0.00 | 0.15 | 0.00 | 72 | 1008.9 |
| 20260507100046 | 52 | 15 | 0.0 | 0.0 | 0.00 | 0.15 | 0.00 | 72 | 1008.9 |
| 20260507095538 | 52 | 346 | 0.0 | 0.0 | 0.00 | 0.15 | 0.00 | 72 | 1009.0 |
| 20260507095037 | 52 | 26 | 0.0 | 0.0 | 0.00 | 0.15 | 0.00 | 73 | 1008.8 |
| 20260507094538 | 52 | 340 | 0.0 | 0.9 | 0.00 | 0.15 | 0.00 | 74 | 1008.8 |
| 20260507094036 | 53 | 316 | 0.0 | 2.6 | 0.00 | 0.15 | 0.00 | 75 | 1008.8 |
| 20260507093533 | 53 | 360 | 0.0 | 0.9 | 0.00 | 0.15 | 0.00 | 77 | 1008.7 |
| 20260507093035 | 53 | 355 | 0.0 | 0.0 | 0.00 | 0.15 | 0.00 | 77 | 1008.8 |
| 20260507092532 | 53 | 355 | 0.0 | 1.7 | 0.00 | 0.15 | 0.00 | 78 | 1008.7 |
| 20260507092034 | 53 | 314 | 0.0 | 1.7 | 0.00 | 0.15 | 0.00 | 79 | 1008.6 |
| 20260507091536 | 53 | 315 | 0.0 | 0.0 | 0.00 | 0.15 | 0.00 | 80 | 1008.5 |
| 20260507091030 | 53 | 319 | 0.0 | 0.0 | 0.00 | 0.15 | 0.00 | 80 | 1008.5 |
| 20260507090530 | 53 | 5 | 0.0 | 0.0 | 0.00 | 0.15 | 0.00 | 80 | 1008.5 |
| 20260507090029 | 53 | 319 | 0.0 | 0.0 | 0.00 | 0.15 | 0.00 | 79 | 1008.7 |
| 20260507085529 | 53 | 313 | 0.0 | 0.0 | 0.00 | 0.15 | 0.00 | 79 | 1008.7 |
| 20260507085029 | 53 | 313 | 0.0 | 0.0 | 0.00 | 0.15 | 0.00 | 79 | 1008.7 |
| 20260507084545 | 53 | 284 | 0.0 | 0.0 | 0.00 | 0.15 | 0.00 | 79 | 1008.5 |
| 20260507084028 | 53 | 313 | 0.0 | 0.0 | 0.00 | 0.15 | 0.00 | 79 | 1008.4 |
| 20260507083530 | 53 | 320 | 0.0 | 0.9 | 0.00 | 0.15 | 0.00 | 79 | 1008.6 |
| 20260507083028 | 53 | 311 | 0.0 | 0.9 | 0.00 | 0.15 | 0.00 | 79 | 1008.4 |
| 20260507082528 | 53 | 329 | 0.0 | 0.0 | 0.00 | 0.15 | 0.00 | 79 | 1008.6 |
| 20260507082027 | 53 | 328 | 0.0 | 0.0 | 0.00 | 0.15 | 0.00 | 79 | 1008.5 |
| 20260507081527 | 53 | 311 | 0.0 | 0.0 | 0.00 | 0.15 | 0.00 | 79 | 1008.5 |
| 20260507081026 | 53 | 311 | 0.0 | 0.0 | 0.00 | 0.15 | 0.00 | 79 | 1008.4 |
| 20260507080525 | 53 | 298 | 0.0 | 0.0 | 0.00 | 0.15 | 0.00 | 79 | 1008.3 |
| 20260507080025 | 53 | 335 | 0.0 | 0.0 | 0.00 | 0.15 | 0.00 | 79 | 1008.1 |
| 20260507075525 | 53 | 19 | 0.0 | 0.0 | 0.00 | 0.15 | 0.00 | 79 | 1008.1 |
| 20260507075025 | 53 | 5 | 0.0 | 0.0 | 0.00 | 0.15 | 0.00 | 79 | 1008.0 |
| 20260507074525 | 53 | 323 | 0.0 | 0.0 | 0.00 | 0.15 | 0.00 | 79 | 1008.0 |
| 20260507074026 | 53 | 24 | 0.0 | 0.0 | 0.00 | 0.15 | 0.00 | 79 | 1008.0 |
| 20260507073524 | 53 | 30 | 0.0 | 0.0 | 0.00 | 0.15 | 0.00 | 79 | 1007.9 |
| 20260507073026 | 53 | 346 | 0.0 | 0.0 | 0.00 | 0.15 | 0.00 | 80 | 1007.9 |
| 20260507072524 | 53 | 5 | 0.0 | 0.0 | 0.00 | 0.15 | 0.00 | 80 | 1008.0 |
| 20260507072023 | 53 | 322 | 0.0 | 0.0 | 0.00 | 0.15 | 0.00 | 81 | 1007.9 |
| 20260507071523 | 53 | 23 | 0.0 | 0.0 | 0.00 | 0.15 | 0.00 | 81 | 1007.8 |
| 20260507071022 | 53 | 5 | 0.0 | 0.0 | 0.00 | 0.15 | 0.00 | 82 | 1007.9 |
| 20260507070522 | 53 | 22 | 0.0 | 0.0 | 0.00 | 0.15 | 0.00 | 83 | 1007.9 |
| 20260507070024 | 53 | 10 | 0.0 | 0.0 | 0.00 | 0.15 | 0.00 | 83 | 1007.8 |
| 20260507065522 | 53 | 5 | 0.0 | 0.0 | 0.00 | 0.15 | 0.00 | 84 | 1007.8 |
| 20260507065021 | 53 | 338 | 0.0 | 0.0 | 0.00 | 0.15 | 0.00 | 84 | 1007.9 |
| 20260507064521 | 54 | 348 | 0.0 | 0.0 | 0.00 | 0.15 | 0.00 | 84 | 1007.8 |
| 20260507064020 | 54 | 336 | 0.0 | 0.0 | 0.00 | 0.15 | 0.00 | 84 | 1008.0 |
| 20260507063520 | 54 | 311 | 0.0 | 0.0 | 0.00 | 0.15 | 0.00 | 84 | 1008.2 |
| 20260507063019 | 54 | 333 | 0.0 | 0.0 | 0.00 | 0.15 | 0.00 | 84 | 1008.2 |
| 20260507062519 | 54 | 328 | 0.0 | 0.0 | 0.00 | 0.15 | 0.00 | 84 | 1008.2 |
| 20260507062019 | 54 | 316 | 0.0 | 0.0 | 0.00 | 0.15 | 0.00 | 83 | 1008.3 |
| 20260507061519 | 55 | 291 | 0.0 | 0.0 | 0.00 | 0.15 | 0.00 | 83 | 1008.4 |
| 20260507061017 | 54 | 279 | 0.0 | 0.9 | 0.00 | 0.15 | 0.00 | 83 | 1008.4 |
| 20260507060516 | 55 | 276 | 0.0 | 0.9 | 0.00 | 0.15 | 0.00 | 84 | 1008.3 |
| 20260507060024 | 55 | 344 | 0.0 | 0.0 | 0.00 | 0.15 | 0.00 | 84 | 1008.2 |
| 20260507055516 | 55 | 302 | 0.0 | 0.0 | 0.00 | 0.15 | 0.00 | 85 | 1008.2 |
| 20260507055015 | 55 | 323 | 0.0 | 0.0 | 0.00 | 0.15 | 0.00 | 84 | 1008.3 |
| 20260507054515 | 55 | 334 | 0.0 | 0.0 | 0.00 | 0.15 | 0.00 | 84 | 1008.2 |
| 20260507054015 | 55 | 344 | 0.0 | 0.0 | 0.00 | 0.15 | 0.00 | 85 | 1008.2 |
| 20260507053517 | 55 | 311 | 0.0 | 0.0 | 0.00 | 0.15 | 0.00 | 85 | 1008.1 |
| 20260507053015 | 55 | 327 | 0.0 | 0.0 | 0.00 | 0.15 | 0.00 | 85 | 1008.0 |
| 20260507052514 | 55 | 296 | 0.0 | 0.0 | 0.00 | 0.15 | 0.00 | 84 | 1007.9 |
| 20260507052014 | 55 | 285 | 0.0 | 0.0 | 0.00 | 0.15 | 0.00 | 84 | 1008.1 |
| 20260507051514 | 55 | 317 | 0.0 | 0.0 | 0.00 | 0.15 | 0.00 | 84 | 1008.2 |
| 20260507051016 | 55 | 337 | 0.0 | 0.0 | 0.00 | 0.15 | 0.00 | 83 | 1008.1 |
| 20260507050512 | 55 | 342 | 0.0 | 0.9 | 0.00 | 0.15 | 0.00 | 83 | 1008.3 |
| 20260507050034 | 55 | 343 | 0.0 | 0.9 | 0.00 | 0.15 | 0.00 | 83 | 1008.1 |
| 20260507045511 | 56 | 341 | 0.0 | 4.3 | 0.00 | 0.15 | 0.00 | 83 | 1008.3 |
| 20260507045011 | 56 | 5 | 0.0 | 4.3 | 0.00 | 0.15 | 0.00 | 82 | 1008.2 |
| 20260507044519 | 56 | 307 | 0.0 | 0.9 | 0.00 | 0.15 | 0.00 | 82 | 1008.1 |
| 20260507044011 | 56 | 327 | 0.0 | 0.9 | 0.00 | 0.15 | 0.00 | 82 | 1007.8 |
| 20260507043509 | 56 | 355 | 0.0 | 2.6 | 0.00 | 0.15 | 0.00 | 82 | 1007.9 |
| 20260507043009 | 56 | 305 | 0.0 | 7.8 | 0.00 | 0.15 | 0.00 | 82 | 1008.2 |
| 20260507042509 | 56 | 325 | 0.0 | 7.8 | 0.00 | 0.15 | 0.00 | 82 | 1008.2 |
| 20260507042007 | 56 | 360 | 0.0 | 0.9 | 0.00 | 0.15 | 0.00 | 82 | 1008.2 |
| 20260507041506 | 56 | 326 | 0.0 | 0.0 | 0.00 | 0.15 | 0.00 | 81 | 1008.0 |
| 20260507041004 | 56 | 349 | 0.0 | 4.3 | 0.00 | 0.15 | 0.00 | 81 | 1007.6 |
| 20260507040504 | 56 | 342 | 0.0 | 7.8 | 0.00 | 0.15 | 0.00 | 81 | 1007.7 |
| 20260507040002 | 57 | 283 | 0.0 | 10.4 | 0.00 | 0.15 | 0.00 | 81 | 1007.8 |
| 20260507035502 | 57 | 302 | 0.0 | 10.4 | 0.00 | 0.15 | 0.15 | 81 | 1008.0 |
| 20260507035001 | 57 | 285 | 0.0 | 7.8 | 0.00 | 0.15 | 0.15 | 81 | 1008.2 |
| 20260507034501 | 57 | 274 | 0.0 | 8.7 | 0.00 | 0.15 | 0.15 | 81 | 1008.0 |
| 20260507034059 | 57 | 335 | 0.0 | 8.7 | 0.00 | 0.15 | 0.15 | 81 | 1007.8 |
| 20260507033559 | 57 | 296 | 0.0 | 7.0 | 0.00 | 0.15 | 0.15 | 81 | 1007.7 |
| 20260507033102 | 57 | 14 | 0.0 | 0.9 | 0.00 | 0.15 | 0.15 | 81 | 1007.1 |
| 20260507032557 | 58 | 17 | 0.0 | 2.6 | 0.00 | 0.15 | 0.15 | 81 | 1007.3 |
| 20260507032056 | 58 | 278 | 0.0 | 2.6 | 0.00 | 0.15 | 0.15 | 81 | 1007.4 |
| 20260507031556 | 58 | 304 | 0.0 | 0.9 | 0.00 | 0.15 | 0.15 | 81 | 1007.5 |
| 20260507031055 | 58 | 311 | 0.0 | 3.5 | 0.00 | 0.15 | 0.15 | 81 | 1007.5 |
| 20260507030555 | 58 | 284 | 0.0 | 3.5 | 0.00 | 0.15 | 0.15 | 81 | 1007.4 |
| 20260507030055 | 58 | 339 | 0.0 | 3.5 | 0.00 | 0.15 | 0.15 | 81 | 1007.5 |
| 20260507025558 | 58 | 307 | 0.0 | 4.3 | 0.00 | 0.15 | 0.15 | 81 | 1007.6 |
| 20260507025053 | 58 | 315 | 0.0 | 4.3 | 0.00 | 0.15 | 0.15 | 82 | 1007.4 |
| 20260507024552 | 59 | 335 | 0.0 | 1.7 | 0.00 | 0.15 | 0.15 | 82 | 1007.2 |
| 20260507024100 | 59 | 306 | 0.0 | 3.5 | 0.00 | 0.15 | 0.15 | 82 | 1006.9 |
| 20260507023555 | 59 | 340 | 0.0 | 3.5 | 0.00 | 0.15 | 0.15 | 82 | 1006.8 |
| 20260507023050 | 59 | 355 | 0.0 | 3.5 | 0.00 | 0.15 | 0.15 | 82 | 1006.8 |
| 20260507022550 | 59 | 15 | 0.0 | 0.9 | 0.00 | 0.15 | 0.15 | 82 | 1007.1 |
| 20260507022050 | 59 | 342 | 0.0 | 1.7 | 0.00 | 0.15 | 0.15 | 82 | 1007.0 |
| 20260507021558 | 60 | 28 | 0.0 | 1.7 | 0.00 | 0.15 | 0.15 | 82 | 1007.0 |
| 20260507021048 | 60 | 300 | 0.0 | 3.5 | 0.00 | 0.15 | 0.15 | 83 | 1006.8 |
| 20260507020549 | 60 | 313 | 0.0 | 3.5 | 0.00 | 0.15 | 0.15 | 83 | 1006.8 |
| 20260507020048 | 60 | 309 | 0.0 | 5.2 | 0.00 | 0.15 | 0.15 | 84 | 1006.9 |
| 20260507015548 | 61 | 323 | 0.0 | 0.9 | 0.00 | 0.15 | 0.15 | 85 | 1006.9 |
| 20260507015048 | 61 | 360 | 0.0 | 0.9 | 0.00 | 0.15 | 0.15 | 85 | 1006.8 |
| 20260507014548 | 61 | 328 | 0.0 | 0.9 | 0.00 | 0.15 | 0.15 | 85 | 1006.9 |
| 20260507014048 | 61 | 339 | 0.0 | 0.0 | 0.00 | 0.15 | 0.15 | 85 | 1006.9 |
| 20260507013547 | 61 | 355 | 0.0 | 0.0 | 0.00 | 0.15 | 0.15 | 86 | 1006.8 |
| 20260507013048 | 62 | 9 | 0.0 | 0.9 | 0.00 | 0.15 | 0.15 | 86 | 1006.6 |
| 20260507012552 | 62 | 288 | 0.0 | 0.9 | 0.00 | 0.15 | 0.15 | 86 | 1006.5 |
| 20260507012051 | 62 | 290 | 0.0 | 0.9 | 0.00 | 0.15 | 0.15 | 86 | 1006.6 |
| 20260507011550 | 62 | 340 | 0.0 | 0.9 | 0.00 | 0.15 | 0.15 | 86 | 1006.5 |
| 20260507011046 | 62 | 277 | 0.0 | 0.9 | 0.00 | 0.15 | 0.15 | 86 | 1006.6 |
| 20260507010546 | 63 | 323 | 0.0 | 0.0 | 0.00 | 0.15 | 0.15 | 86 | 1006.6 |
| 20260507010047 | 63 | 322 | 0.0 | 0.0 | 0.00 | 0.15 | 0.15 | 86 | 1006.7 |
| 20260507005547 | 63 | 273 | 0.0 | 0.9 | 0.00 | 0.15 | 0.15 | 85 | 1006.7 |
| 20260507005046 | 63 | 286 | 0.0 | 0.9 | 0.00 | 0.15 | 0.15 | 84 | 1006.8 |
| 20260507004546 | 63 | 311 | 0.0 | 0.9 | 0.00 | 0.15 | 0.15 | 84 | 1006.7 |
| 20260507004046 | 63 | 344 | 0.0 | 0.9 | 0.00 | 0.15 | 0.15 | 83 | 1006.6 |
| 20260507003547 | 63 | 327 | 0.0 | 1.7 | 0.00 | 0.15 | 0.15 | 82 | 1006.6 |
| 20260507003046 | 64 | 306 | 0.0 | 1.7 | 0.00 | 0.15 | 0.15 | 82 | 1006.6 |
| 20260507002545 | 64 | 263 | 0.0 | 1.7 | 0.00 | 0.15 | 0.15 | 82 | 1006.8 |
| 20260507002046 | 64 | 274 | 0.0 | 1.7 | 0.00 | 0.15 | 0.15 | 82 | 1006.9 |
| 20260507001546 | 64 | 279 | 0.0 | 0.0 | 0.00 | 0.15 | 0.15 | 82 | 1006.6 |
| 20260507001044 | 64 | 275 | 0.0 | 0.0 | 0.00 | 0.15 | 0.15 | 82 | 1006.4 |
| 20260507000545 | 64 | 326 | 0.0 | 0.0 | 0.00 | 0.15 | 0.15 | 84 | 1006.3 |
| 20260507000045 | 64 | 311 | 0.0 | 2.6 | 0.00 | 0.15 | 0.15 | 85 | 1006.3 |
| 20260506235545 | 64 | 291 | 0.0 | 2.6 | 0.00 | 0.15 | 0.15 | 86 | 1006.3 |